Weather History for Robstown, TX

Change the Weather History Date:

Tuesday, October 23, 2012

  Actual Average (KCRP) Record (KCRP)
Temperature  
Mean Temperature 82 °F 73 °F  
Max Temperature 90 °F 83 °F 94 °F (2004)
Min Temperature 73 °F 63 °F 41 °F (1996)
Degree Days  
Heating Degree Days 0 0  
Month to date heating degree days 0  
Since 1 July heating degree days 0  
Cooling Degree Days 16 9  
Month to date cooling degree days 249  
Year to date cooling degree days 3292  
Growing Degree Days 32 (Base 50)    
Moisture  
Dew Point 69 °F    
Average Humidity 70    
Maximum Humidity 87    
Minimum Humidity 47    
Precipitation  
Precipitation 0.00 in 0.12 in 1.96 in (1953)
Month to date precipitation 2.80  
Year to date precipitation 27.12  
Snow  
Snow 0.00 in - - ()
Month to date snowfall  
Since 1 July snowfall  
Since 1 September snowfall  
Snow Depth -    
Sea Level Pressure  
Sea Level Pressure 29.93 in    
Wind  
Wind Speed 9 mph (SE)    
Max Wind Speed 18 mph    
Max Gust Speed 24 mph    
Visibility 10 miles    
Events      
T = Trace of Precipitation, MM = Missing Value Source: NWS Daily Summary

Daily Weather History Graph

Daily Weather History Graph

Search for Another Location

Airport:

Trip Planner

Search our weather history database for the weather conditions in past years. The results will help you decide how hot, cold, wet, or windy it might be!

Date:

Astronomy

Oct. 23, 2012 Rise Set
Actual Time 7:36 AM CDT 6:53 PM CDT
Civil Twilight 7:12 AM CDT 7:17 PM CDT
Nautical Twilight 6:44 AM CDT 7:44 PM CDT
Astronomical Twilight 6:17 AM CDT 8:11 PM CDT
Moon 3:11 PM CDT (10/23) 1:59 AM CDT (10/23)
Length of Visible Light 12h 05m
Length of Day
11h 17m
Waxing Gibbous, 67% of the Moon is Illuminated
Oct 23
Waxing Gibbous
Oct 29
Full
Nov 6
Last Quarter
Nov 13
New
Nov 20
First Quarter

Hourly Weather History & Observations

Time (CDT) Temp. Heat Index Dew Point Humidity Pressure Visibility Wind Dir Wind Speed Gust Speed Precip Events Conditions
12:15 AM 77.4 °F - 71.1 °F 81% 29.94 in 10.0 mi SE 8.1 mph - N/A   Clear
12:35 AM 77.2 °F - 71.1 °F 81% 29.94 in 10.0 mi SE 6.9 mph - N/A   Clear
12:55 AM 76.6 °F - 70.9 °F 82% 29.93 in 10.0 mi SE 6.9 mph - N/A   Clear
1:15 AM 76.6 °F - 70.7 °F 82% 29.93 in 10.0 mi SE 8.1 mph - N/A   Clear
1:35 AM 76.6 °F - 70.7 °F 82% 29.92 in 10.0 mi SE 8.1 mph - N/A   Clear
1:55 AM 76.6 °F - 70.9 °F 82% 29.92 in 10.0 mi SE 8.1 mph - N/A   Clear
2:15 AM 76.1 °F - 70.7 °F 83% 29.92 in 10.0 mi SE 5.8 mph - N/A   Scattered Clouds
2:55 AM 75.6 °F - 70.7 °F 85% 29.92 in 10.0 mi SE 5.8 mph - N/A   Scattered Clouds
3:15 AM 76.3 °F - 70.9 °F 83% 29.92 in 10.0 mi SE 4.6 mph - N/A   Mostly Cloudy
3:35 AM 76.1 °F - 70.7 °F 83% 29.92 in 10.0 mi ESE 3.5 mph - N/A   Mostly Cloudy
3:55 AM 74.7 °F - 70.2 °F 86% 29.91 in 10.0 mi SE 3.5 mph - N/A   Scattered Clouds
4:15 AM 74.7 °F - 70.3 °F 86% 29.90 in 10.0 mi SSE 3.5 mph - N/A   Scattered Clouds
4:35 AM 74.7 °F - 70.0 °F 85% 29.91 in 10.0 mi SE 4.6 mph - N/A   Scattered Clouds
4:55 AM 74.3 °F - 69.8 °F 86% 29.91 in 10.0 mi SE 5.8 mph - N/A   Scattered Clouds
5:15 AM 74.1 °F - 69.8 °F 86% 29.90 in 10.0 mi SE 5.8 mph - N/A   Scattered Clouds
5:35 AM 74.3 °F - 69.8 °F 86% 29.91 in 10.0 mi SE 5.8 mph - N/A   Scattered Clouds
5:55 AM 74.1 °F - 69.8 °F 86% 29.92 in 10.0 mi SE 4.6 mph - N/A   Clear
6:15 AM 73.4 °F - 69.3 °F 87% 29.92 in 10.0 mi ESE 4.6 mph - N/A   Clear
6:35 AM 73.2 °F - 69.3 °F 87% 29.92 in 10.0 mi SE 5.8 mph - N/A   Clear
6:55 AM 73.4 °F - 69.4 °F 87% 29.92 in 10.0 mi SE 3.5 mph - N/A   Scattered Clouds
7:15 AM 73.4 °F - 69.4 °F 87% 29.93 in 10.0 mi SE 4.6 mph - N/A   Clear
7:35 AM 73.9 °F - 70.0 °F 87% 29.93 in 10.0 mi ESE 5.8 mph - N/A   Scattered Clouds
8:15 AM 75.2 °F - 70.7 °F 86% 29.94 in 10.0 mi Calm Calm - N/A   Scattered Clouds
8:35 AM 77.0 °F - 71.2 °F 82% 29.94 in 10.0 mi ESE 3.5 mph - N/A   Mostly Cloudy
9:15 AM 81.5 °F 86.3 °F 72.3 °F 74% 29.95 in 10.0 mi SE 9.2 mph - N/A   Scattered Clouds
9:55 AM 82.4 °F 87.2 °F 71.8 °F 70% 29.95 in 10.0 mi South 11.5 mph - N/A   Mostly Cloudy
10:15 AM 83.5 °F 88.2 °F 70.9 °F 66% 29.95 in 10.0 mi South 12.7 mph - N/A   Mostly Cloudy
10:35 AM 84.4 °F 89.0 °F 70.3 °F 63% 29.95 in 10.0 mi South 11.5 mph 20.7 mph N/A   Mostly Cloudy
10:55 AM 84.9 °F 89.7 °F 70.5 °F 62% 29.95 in 10.0 mi SE 12.7 mph - N/A   Mostly Cloudy
11:15 AM 85.6 °F 90.1 °F 69.8 °F 59% 29.96 in 10.0 mi SSE 13.8 mph - N/A   Mostly Cloudy
11:35 AM 86.4 °F 91.1 °F 70.2 °F 58% 29.96 in 10.0 mi SE 15.0 mph 20.7 mph N/A   Mostly Cloudy
11:55 AM 86.7 °F 91.0 °F 69.4 °F 56% 29.95 in 10.0 mi SE 15.0 mph 21.9 mph N/A   Mostly Cloudy
12:15 PM 88.3 °F 93.2 °F 69.6 °F 54% 29.94 in 10.0 mi SSE 15.0 mph - N/A   Mostly Cloudy
12:35 PM 88.9 °F 93.4 °F 69.4 °F 52% 29.94 in 10.0 mi SE 17.3 mph - N/A   Scattered Clouds
12:55 PM 89.4 °F 94.0 °F 69.1 °F 51% 29.94 in 10.0 mi SE 15.0 mph 23.0 mph N/A   Scattered Clouds
1:15 PM 89.8 °F 94.2 °F 68.9 °F 50% 29.93 in 10.0 mi SE 17.3 mph - N/A   Scattered Clouds
1:35 PM 89.8 °F 93.8 °F 68.4 °F 49% 29.92 in 10.0 mi SE 16.1 mph 23.0 mph N/A   Clear
1:55 PM 89.4 °F 93.1 °F 68.2 °F 49% 29.91 in 10.0 mi SE 15.0 mph 20.7 mph N/A   Scattered Clouds
2:15 PM 90.7 °F 94.5 °F 68.0 °F 47% 29.91 in 10.0 mi SSE 18.4 mph 21.9 mph N/A   Scattered Clouds
2:35 PM 89.6 °F 93.4 °F 68.0 °F 49% 29.90 in 10.0 mi SE 13.8 mph 23.0 mph N/A   Scattered Clouds
2:55 PM 89.2 °F 92.8 °F 68.0 °F 49% 29.90 in 10.0 mi SE 17.3 mph 24.2 mph N/A   Scattered Clouds
3:15 PM 89.6 °F 93.0 °F 67.5 °F 48% 29.89 in 10.0 mi SSE 10.4 mph - N/A   Scattered Clouds
3:55 PM 89.2 °F 93.2 °F 68.2 °F 50% 29.89 in 10.0 mi ESE 17.3 mph 23.0 mph N/A   Scattered Clouds
4:15 PM 88.5 °F 91.9 °F 68.0 °F 50% 29.89 in 10.0 mi ESE 17.3 mph - N/A   Mostly Cloudy
4:35 PM 87.8 °F 91.4 °F 68.0 °F 52% 29.89 in 10.0 mi ESE 17.3 mph - N/A   Scattered Clouds
4:55 PM 87.8 °F 91.1 °F 67.8 °F 51% 29.90 in 10.0 mi SE 18.4 mph - N/A   Scattered Clouds
5:15 PM 87.3 °F 90.9 °F 68.0 °F 53% 29.90 in 10.0 mi ESE 16.1 mph - N/A   Clear
5:35 PM 86.4 °F 89.7 °F 68.0 °F 54% 29.90 in 10.0 mi ESE 17.3 mph 20.7 mph N/A   Scattered Clouds
5:55 PM 85.5 °F 88.5 °F 67.6 °F 55% 29.90 in 10.0 mi SE 17.3 mph 24.2 mph N/A   Clear
6:15 PM 84.6 °F 87.6 °F 67.8 °F 57% 29.91 in 10.0 mi ESE 17.3 mph - N/A   Clear
6:35 PM 83.3 °F 86.4 °F 68.2 °F 60% 29.91 in 10.0 mi SE 16.1 mph 20.7 mph N/A   Clear
6:55 PM 82.4 °F 85.4 °F 68.0 °F 62% 29.91 in 10.0 mi ESE 17.3 mph 20.7 mph N/A   Clear
7:15 PM 81.5 °F 84.4 °F 68.2 °F 64% 29.92 in 10.0 mi ESE 15.0 mph - N/A   Clear
7:35 PM 81.0 °F 83.8 °F 68.4 °F 65% 29.92 in 10.0 mi SE 11.5 mph - N/A   Clear
7:55 PM 80.1 °F 82.7 °F 68.4 °F 67% 29.92 in 10.0 mi ESE 10.4 mph - N/A   Clear
8:15 PM 79.7 °F - 68.4 °F 68% 29.93 in 10.0 mi ESE 9.2 mph - N/A   Clear
8:55 PM 78.6 °F - 68.9 °F 72% 29.94 in 10.0 mi SE 8.1 mph - N/A   Clear
9:15 PM 78.1 °F - 68.9 °F 73% 29.95 in 10.0 mi SE 9.2 mph - N/A   Clear
9:35 PM 77.5 °F - 68.4 °F 73% 29.95 in 10.0 mi SE 8.1 mph - N/A   Clear
9:55 PM 77.0 °F - 68.2 °F 74% 29.96 in 10.0 mi SE 8.1 mph - N/A   Clear
10:35 PM 76.1 °F - 68.2 °F 76% 29.97 in 10.0 mi SE 6.9 mph - N/A   Clear
10:55 PM 75.7 °F - 68.4 °F 78% 29.96 in 10.0 mi SE 8.1 mph - N/A   Clear
11:15 PM 75.0 °F - 68.2 °F 79% 29.96 in 10.0 mi SE 5.8 mph - N/A   Clear
11:35 PM 74.3 °F - 67.6 °F 80% 29.95 in 10.0 mi SE 5.8 mph - N/A   Clear
11:55 PM 73.6 °F - 67.1 °F 80% 29.95 in 10.0 mi SE 5.8 mph - N/A   Clear